Tracking 30701 objects as of 14-Jun-2025
HD Live streaming from Space Station
objects crossing your sky now

STARLINK-4758

Track STARLINK-4758 now!
10-day predictions
STARLINK-4758 is classified as:


NORAD ID: 53820
Int'l Code: 2022-114C
Perigee: 546.0 km
Apogee: 547.8 km
Inclination: 53.2 °
Period: 95.4 minutes
Semi major axis: 6917 km
RCS: Unknown
Launch date: September 19, 2022
Source: United States (US)
Launch site: AIR FORCE EASTERN TEST RANGE (AFETR)
Your satellite tracking list
Your tracking list is empty




NASA's NSSDC Master Catalog

Two Line Element Set (TLE):
1 53820U 22114C   25164.45939135  .00002628  00000-0  18311-3 0  9990
2 53820  53.2178  72.9593 0001284  78.2706 281.8430 15.08845786152181
Source of the keplerian elements: AFSPC